Waukegan National Airport (UGN)


Airport Diagram
Current Weather/Forecast (MVFR Conditions)
METAR KUGN 290355Z AUTO 00000KT 9SM -RA FEW010 BKN024 OVC060 19/18 A2986 RMK AO2 RAB53 SLP101 P0000 T01890178
TAF

All Charts
General
Chart Name Download
AIRPORT DIAGRAM
TAKEOFF MINIMUMS
ALTERNATE MINIMUMS

Departures
Chart Name Download
JORJO FIVE (RNAV)
JORJO FIVE (RNAV), CONT.1
MONKZ FIVE (RNAV)
MONKZ FIVE (RNAV), CONT.1

Arrivals
Chart Name Download
GOPAC TWO (RNAV)

Approaches
Chart Name Download
ILS OR LOC RWY 23
RNAV (GPS) RWY 05
RNAV (GPS) RWY 23